sat.trackr.live / text

‹ back to catalog

STARLINK-38090

NORAD 69994 · 2026-159V

PAYLOAD ACTIVE UNKNOWN

§ Identity

Operator
Country
US
Launch date
2026-07-11
Launch site
AFWTR
Launch vehicle
Mass (kg)
RCS (m²)

Purposes: comms

External: N2YO · Heavens-Above · Gunter

§ Orbital elements

Epoch: 2026-09-19T19:52:32.939328Z

Period
92.95 min
Inclination
97.2835°
Eccentricity
0.0000649
Mean motion
15.49219683 rev/d
Perigee alt
418.6 km
Apogee alt
419.4 km
Semi-major
6,797.1 km
B*
5.6128e-4
RAAN
104.6493°
Arg perigee
102.9759°
Mean anomaly
257.1565°
Rev number
1,234

§ Raw data

STARLINK-380901 69994U 26159V   26262.82815902  .00030587  00000+0  56128-3 0  99902 69994  97.2835 104.6493 0000649 102.9759 257.1565 15.49219683 12341

JSON: /api/v1/satellites/69994 · /tle

For live sub-satellite position, see the globe view (requires WebGL).

§ Visibility from observer

Set your observer location to see the next 7 days of passes ≥ 10°. The values pass through the URL so the page stays shareable.

No JS? Fill the form by hand. The geolocation button needs JavaScript.